CDT,Max TemperatureF,Mean TemperatureF,Min TemperatureF,Max Dew PointF,MeanDew PointF,Min DewpointF,Max Humidity, Mean Humidity, Min Humidity, Max Sea Level PressureIn, Mean Sea Level PressureIn, Min Sea Level PressureIn, Max VisibilityMiles, Mean VisibilityMiles, Min VisibilityMiles, Max Wind SpeedMPH, Mean Wind SpeedMPH, Max Gust SpeedMPH,PrecipitationIn, CloudCover, Events, WindDirDegrees
2012-10-1,68,56,45,56,50,45,100,78,48,29.83,29.79,29.75,10,10,10,12,4,,0.00,3,,10
2012-10-2,71,57,43,54,48,43,99,75,40,29.90,29.86,29.82,10,10,10,10,3,,0.00,2,,297
2012-10-3,72,64,55,57,54,50,98,74,47,30.04,29.97,29.90,10,10,10,9,3,,0.00,6,,177
2012-10-4,79,68,54,60,56,49,88,70,48,30.15,30.11,30.04,10,10,10,12,7,,0.00,4,,241
2012-10-5,53,45,36,48,45,36,100,96,76,30.30,30.18,30.14,10,9,2,14,8,18,0.66,7,Rain-Thunderstorm,8
2012-10-6,46,40,34,40,37,33,99,90,61,30.30,30.27,30.24,10,10,10,12,4,,0.00,6,,326
2012-10-7,52,42,32,39,34,28,99,77,41,30.31,30.25,30.19,10,10,10,7,2,,0.00,1,,271
2012-10-8,59,45,32,40,35,32,99,70,39,30.23,30.15,30.07,10,10,10,13,4,17,0.00,0,,199
2012-10-9,66,52,38,55,48,38,100,84,41,30.06,30.01,29.92,10,9,5,16,7,22,0.02,5,,225
2012-10-10,58,47,37,52,39,29,100,78,35,30.30,30.18,30.05,10,10,5,18,8,28,0.01,3,Rain,343
2012-10-11,58,47,37,53,46,36,98,81,62,30.23,30.17,30.12,10,10,7,10,6,,0.01,7,Rain,157
2012-10-12,61,56,51,57,54,52,100,98,82,30.32,30.23,30.17,10,8,2,12,4,17,0.31,7,Rain-Thunderstorm,84
2012-10-13,74,65,55,68,63,55,100,92,69,30.17,29.92,29.76,10,8,1,18,10,28,0.81,8,Rain-Thunderstorm,178
2012-10-14,68,60,51,63,59,46,100,92,54,30.01,29.77,29.63,10,7,1,16,6,26,0.80,6,Rain,225
2012-10-15,75,60,45,52,47,42,99,69,33,30.04,29.97,29.90,10,10,7,7,2,,0.00,0,,211
2012-10-16,80,66,51,51,47,42,97,55,26,29.89,29.76,29.62,10,10,10,13,7,29,0.00,0,,188
2012-10-17,69,60,47,63,57,46,100,90,73,29.65,29.50,29.41,10,9,1,23,10,38,0.46,6,Rain-Thunderstorm,229
2012-10-18,60,50,41,45,33,27,97,53,31,29.71,29.67,29.63,10,10,10,17,8,33,0.00,3,,247
2012-10-19,51,49,47,43,40,35,82,72,54,29.84,29.72,29.62,10,10,10,18,11,30,0.00,8,,274
2012-10-20,72,54,37,46,41,35,99,65,28,29.91,29.85,29.80,10,10,7,9,4,,0.00,1,,171
2012-10-21,77,64,51,68,59,46,94,78,56,29.90,29.86,29.82,10,10,10,12,8,,0.00,3,,162
2012-10-22,81,72,64,70,66,63,100,80,61,29.92,29.88,29.84,10,10,2,16,9,26,0.07,5,Rain-Thunderstorm,179
2012-10-23,82,71,61,64,61,55,100,78,45,29.92,29.89,29.82,10,9,4,18,9,20,0.46,4,Rain-Thunderstorm,176
2012-10-24,82,71,60,65,62,60,100,74,53,29.94,29.88,29.81,10,10,10,14,9,23,0.00,1,,170
2012-10-25,77,60,43,64,53,38,100,89,61,30.16,29.91,29.77,10,9,2,21,13,29,0.23,6,Rain,276
2012-10-26,48,42,34,37,31,27,83,66,48,30.35,30.30,30.17,10,10,10,17,13,26,0.00,3,,350
2012-10-27,48,38,28,30,29,27,99,71,43,30.35,30.29,30.23,10,9,2,13,7,,0.00,1,,344
2012-10-28,50,38,28,31,27,24,99,67,39,30.31,30.27,30.23,10,8,2,15,5,20,0.00,1,,350
2012-10-29,52,38,26,32,27,22,97,67,31,30.35,30.26,30.15,10,10,10,7,1,,0.00,4,,9
2012-10-30,56,41,26,31,26,21,99,58,26,30.14,30.04,29.97,10,8,3,12,2,,0.00,2,,312
2012-10-31,59,48,36,32,28,22,73,51,28,30.04,30.00,29.98,10,10,10,12,5,24,0.00,0,,316